Location: Squirrel Cove
(50.1074°N, 124.9139°W)
Time: 23:58:14
(UTC-08:00)

BlueWalker 3 - Pass Details

Date: 30 November 2022
Orbit: 499 x 517 km, 53.2° (Epoch: 29 January)

Event Time Altitude Azimuth Distance (km) Brightness Sun altitude
Rises 19:39:42 0° 286° (WNW) 2,627 6.7 -31.0°
Reaches altitude 10° 19:41:56 10° 290° (WNW) 1,736 5.5 -31.4°
Enters shadow 19:43:07 19° 294° (WNW) 1,282 4.6 -31.6°
